GFSNGP_prec_precacc24_273.txt.gz
Total_Precipitation_Accumulation
0.01 0.00 0.00 0.00 0.00 0.00 0.00 0.02 0.03 0.01 0.00 0.00 0.00 0.00 0.00 0.00 0.00 0.00 0.02 0.03 0.05 0.05 0.04 0.07 0.08 0.07 0.07 0.18 0.28 0.22 0.23 0.27 0.28 0.26 0.17 0.08 0.03 0.01 0.00 0.00 0.00 0.01 0.01 0.02
0.01 0.00 0.00 0.01 0.00 0.00 0.00 0.00 0.00 0.00 0.00 0.00 0.00 0.00 0.00 0.00 0.00 0.01 0.01 0.01 0.01 0.00 0.01 0.03 0.05 0.06 0.05 0.05 0.08 0.14 0.21 0.23 0.21 0.16 0.12 0.09 0.06 0.03 0.01 0.01 0.00 0.02 0.07 0.09
0.13 0.00 0.03 0.04 0.00 0.00 0.00 0.00 0.00 0.00 0.00 0.00 0.00 0.00 0.00 0.01 0.00 0.00 0.02 0.02 0.01 0.02 0.01 0.01 0.02 0.04 0.04 0.04 0.04 0.08 0.16 0.25 0.24 0.18 0.16 0.11 0.11 0.08 0.04 0.01 0.01 0.00 0.01 0.03
0.27 0.09 0.22 0.07 0.00 0.00 0.00 0.00 0.00 0.00 0.00 0.00 0.00 0.00 0.00 0.01 0.01 0.02 0.03 0.03 0.02 0.03 0.06 0.05 0.03 0.04 0.04 0.03 0.05 0.08 0.11 0.15 0.21 0.26 0.15 0.03 0.01 0.00 0.00 0.00 0.00 0.00 0.00 0.00
0.34 0.25 0.17 0.01 0.00 0.00 0.01 0.01 0.00 0.00 0.00 0.00 0.00 0.00 0.00 0.00 0.03 0.03 0.02 0.05 0.06 0.05 0.04 0.05 0.08 0.12 0.17 0.21 0.21 0.18 0.17 0.18 0.16 0.14 0.09 0.04 0.02 0.02 0.01 0.00 0.00 0.00 0.00 0.00
0.30 0.37 0.22 0.02 0.00 0.01 0.03 0.04 0.00 0.00 0.00 0.00 0.00 0.00 0.00 0.00 0.00 0.07 0.14 0.09 0.04 0.02 0.02 0.03 0.04 0.06 0.10 0.14 0.16 0.16 0.11 0.09 0.06 0.07 0.04 0.06 0.08 0.03 0.01 0.01 0.00 0.00 0.00 0.00
0.18 0.34 0.13 0.00 0.00 0.02 0.09 0.07 0.02 0.03 0.01 0.00 0.01 0.01 0.01 0.01 0.01 0.00 0.06 0.14 0.14 0.11 0.11 0.14 0.14 0.16 0.17 0.16 0.16 0.13 0.10 0.07 0.05 0.06 0.08 0.09 0.07 0.06 0.03 0.01 0.00 0.00 0.00 0.00
0.09 0.12 0.09 0.00 0.00 0.03 0.04 0.02 0.02 0.02 0.01 0.01 0.01 0.03 0.06 0.09 0.08 0.08 0.08 0.09 0.10 0.12 0.15 0.18 0.24 0.25 0.28 0.31 0.29 0.24 0.20 0.20 0.26 0.31 0.33 0.27 0.14 0.03 0.01 0.00 0.00 0.00 0.00 0.00
0.19 0.12 0.02 0.00 0.01 0.02 0.01 0.01 0.05 0.26 0.30 0.12 0.12 0.07 0.10 0.39 0.34 0.19 0.13 0.12 0.14 0.17 0.19 0.20 0.23 0.24 0.27 0.33 0.32 0.33 0.40 0.45 0.44 0.37 0.25 0.13 0.05 0.02 0.01 0.00 0.00 0.00 0.00 0.01
0.21 0.10 0.02 0.00 0.01 0.01 0.05 0.15 0.08 0.04 0.14 0.35 0.29 0.25 0.29 0.29 0.34 0.31 0.36 0.36 0.26 0.24 0.30 0.40 0.51 0.65 0.78 0.87 0.89 0.81 0.70 0.55 0.36 0.22 0.12 0.04 0.01 0.00 0.00 0.00 0.00 0.00 0.01 0.00
0.18 0.08 0.02 0.01 0.02 0.05 0.03 0.02 0.10 0.22 0.26 0.26 0.40 0.26 0.26 0.35 0.19 0.14 0.20 0.31 0.45 0.46 0.49 0.63 0.78 0.91 0.95 0.86 0.67 0.49 0.33 0.21 0.13 0.07 0.03 0.01 0.01 0.01 0.01 0.02 0.01 0.01 0.02 0.01
0.14 0.11 0.14 0.13 0.14 0.16 0.25 0.18 0.06 0.07 0.22 0.51 0.46 0.32 0.16 0.15 0.14 0.14 0.22 0.40 0.51 0.60 0.69 0.79 0.79 0.78 0.70 0.51 0.30 0.19 0.13 0.09 0.05 0.02 0.01 0.00 0.00 0.00 0.00 0.00 0.00 0.00 0.00 0.00
0.30 0.26 0.36 0.44 0.23 0.25 0.25 0.38 0.41 0.34 0.35 0.60 0.66 0.30 0.12 0.12 0.16 0.26 0.31 0.41 0.54 0.60 0.56 0.60 0.54 0.44 0.31 0.17 0.13 0.11 0.09 0.05 0.01 0.00 0.00 0.00 0.00 0.00 0.01 0.01 0.00 0.00 0.00 0.00
0.38 0.50 0.56 0.58 0.37 0.13 0.19 0.30 0.43 0.44 0.34 0.44 0.61 0.54 0.40 0.33 0.39 0.40 0.46 0.48 0.52 0.59 0.65 0.52 0.37 0.25 0.20 0.16 0.11 0.07 0.04 0.01 0.00 0.00 0.00 0.00 0.00 0.01 0.01 0.01 0.01 0.01 0.00 0.00
0.29 0.40 0.54 0.52 0.79 0.53 0.30 0.44 0.63 0.41 0.20 0.16 0.26 0.55 0.57 0.70 0.67 0.78 0.95 0.91 0.76 0.65 0.61 0.45 0.27 0.19 0.13 0.09 0.05 0.02 0.01 0.00 0.00 0.00 0.00 0.00 0.00 0.00 0.00 0.01 0.01 0.01 0.01 0.01
0.57 0.50 0.54 0.63 0.77 0.79 0.46 0.42 0.47 0.43 0.26 0.16 0.23 0.49 0.63 0.64 0.74 0.84 0.81 0.64 0.51 0.49 0.34 0.23 0.19 0.15 0.08 0.03 0.01 0.00 0.00 0.00 0.00 0.00 0.00 0.00 0.00 0.01 0.01 0.01 0.01 0.02 0.02 0.04
1.08 0.98 0.74 0.62 0.49 0.58 0.39 0.20 0.27 0.42 0.35 0.30 0.44 0.41 0.59 0.81 0.73 0.56 0.55 0.46 0.30 0.20 0.17 0.16 0.13 0.08 0.03 0.00 0.00 0.00 0.00 0.00 0.00 0.00 0.00 0.00 0.01 0.01 0.01 0.02 0.03 0.02 0.03 0.04
1.31 1.55 1.04 0.60 0.35 0.41 0.35 0.29 0.36 0.54 0.60 0.52 0.54 0.68 0.76 0.63 0.54 0.60 0.51 0.29 0.20 0.15 0.10 0.05 0.02 0.00 0.00 0.00 0.00 0.00 0.00 0.00 0.00 0.00 0.00 0.01 0.01 0.02 0.02 0.03 0.04 0.04 0.03 0.02
1.38 1.58 1.05 0.55 0.48 0.51 0.52 0.61 0.61 0.64 0.74 0.74 0.68 0.71 0.59 0.50 0.42 0.37 0.20 0.11 0.08 0.06 0.04 0.00 0.00 0.00 0.00 0.00 0.00 0.00 0.00 0.00 0.00 0.00 0.01 0.01 0.01 0.02 0.03 0.03 0.05 0.04 0.03 0.03
0.79 1.15 0.96 0.93 0.99 0.77 0.82 0.80 0.73 0.81 0.81 0.59 0.47 0.46 0.43 0.33 0.20 0.10 0.06 0.04 0.01 0.00 0.00 0.00 0.00 0.00 0.00 0.00 0.00 0.00 0.00 0.00 0.00 0.01 0.01 0.01 0.02 0.03 0.03 0.03 0.03 0.04 0.03 0.03
0.73 0.78 0.74 0.69 0.94 0.88 0.69 0.64 0.45 0.50 0.60 0.36 0.25 0.27 0.18 0.14 0.08 0.04 0.02 0.01 0.00 0.00 0.00 0.00 0.00 0.00 0.00 0.00 0.00 0.00 0.00 0.00 0.01 0.01 0.01 0.02 0.02 0.02 0.03 0.03 0.03 0.04 0.03 0.03
0.43 0.43 0.47 0.36 0.32 0.53 0.57 0.44 0.25 0.26 0.26 0.23 0.11 0.08 0.05 0.03 0.01 0.00 0.00 0.01 0.00 0.00 0.00 0.00 0.00 0.00 0.00 0.00 0.00 0.00 0.00 0.01 0.01 0.01 0.02 0.02 0.03 0.03 0.03 0.03 0.03 0.04 0.03 0.05
0.16 0.12 0.15 0.09 0.04 0.13 0.15 0.09 0.05 0.03 0.02 0.01 0.00 0.00 0.00 0.00 0.00 0.00 0.01 0.00 0.00 0.00 0.00 0.00 0.00 0.00 0.00 0.00 0.01 0.01 0.01 0.01 0.01 0.02 0.02 0.02 0.03 0.03 0.03 0.03 0.03 0.04 0.04 0.05
0.01 0.01 0.00 0.00 0.00 0.00 0.00 0.00 0.00 0.00 0.00 0.00 0.00 0.00 0.00 0.00 0.01 0.00 0.00 0.00 0.00 0.00 0.00 0.00 0.00 0.00 0.00 0.01 0.01 0.01 0.01 0.01 0.02 0.02 0.02 0.01 0.02 0.02 0.03 0.03 0.02 0.03 0.03 0.04
0.00 0.00 0.00 0.00 0.00 0.00 0.00 0.00 0.00 0.00 0.00 0.00 0.00 0.00 0.00 0.00 0.01 0.01 0.00 0.00 0.00 0.00 0.00 0.00 0.00 0.00 0.01 0.01 0.01 0.01 0.01 0.02 0.01 0.02 0.02 0.02 0.02 0.02 0.02 0.02 0.03 0.03 0.03 0.03
0.00 0.00 0.00 0.00 0.00 0.00 0.00 0.00 0.00 0.00 0.00 0.00 0.01 0.00 0.00 0.00 0.00 0.00 0.00 0.00 0.00 0.00 0.00 0.00 0.00 0.01 0.01 0.01 0.01 0.01 0.01 0.01 0.01 0.01 0.02 0.02 0.02 0.02 0.02 0.02 0.02 0.02 0.02 0.03
0.00 0.00 0.00 0.00 0.00 0.00 0.00 0.00 0.00 0.00 0.00 0.00 0.02 0.01 0.01 0.00 0.00 0.00 0.00 0.00 0.00 0.00 0.01 0.01 0.00 0.00 0.01 0.01 0.01 0.01 0.01 0.01 0.01 0.01 0.01 0.01 0.02 0.01 0.01 0.01 0.01 0.01 0.02 0.02

GFSNGP_prec_precacc24_279.txt.gz
Total_Precipitation_Accumulation
0.00 0.00 0.00 0.00 0.00 0.00 0.00 0.02 0.03 0.01 0.00 0.00 0.00 0.00 0.00 0.00 0.00 0.00 0.02 0.03 0.05 0.05 0.04 0.07 0.08 0.07 0.07 0.19 0.31 0.25 0.27 0.33 0.41 0.52 0.44 0.31 0.23 0.19 0.14 0.10 0.06 0.05 0.05 0.07
0.01 0.00 0.00 0.01 0.00 0.00 0.00 0.00 0.00 0.00 0.00 0.00 0.00 0.00 0.00 0.00 0.00 0.01 0.01 0.01 0.01 0.00 0.01 0.03 0.05 0.06 0.05 0.06 0.09 0.17 0.30 0.33 0.40 0.38 0.34 0.33 0.28 0.26 0.26 0.27 0.23 0.15 0.11 0.10
0.04 0.00 0.01 0.02 0.00 0.00 0.00 0.00 0.00 0.00 0.00 0.00 0.00 0.00 0.00 0.01 0.00 0.01 0.02 0.02 0.01 0.02 0.01 0.01 0.02 0.04 0.05 0.04 0.06 0.14 0.27 0.37 0.43 0.41 0.40 0.49 0.52 0.50 0.40 0.31 0.22 0.19 0.17 0.15
0.03 0.03 0.11 0.02 0.00 0.00 0.00 0.00 0.00 0.00 0.00 0.00 0.00 0.00 0.00 0.01 0.01 0.02 0.03 0.03 0.02 0.03 0.06 0.05 0.03 0.04 0.04 0.04 0.09 0.14 0.19 0.26 0.34 0.41 0.44 0.45 0.38 0.31 0.24 0.19 0.17 0.15 0.11 0.07
0.03 0.04 0.04 0.00 0.00 0.00 0.01 0.01 0.00 0.00 0.00 0.00 0.00 0.00 0.00 0.00 0.03 0.03 0.02 0.05 0.06 0.05 0.04 0.05 0.08 0.12 0.17 0.22 0.24 0.23 0.27 0.31 0.33 0.30 0.31 0.30 0.26 0.22 0.23 0.25 0.23 0.18 0.12 0.04
0.08 0.14 0.04 0.00 0.00 0.01 0.03 0.04 0.00 0.00 0.00 0.00 0.00 0.02 0.00 0.00 0.00 0.07 0.14 0.09 0.04 0.02 0.02 0.03 0.04 0.06 0.10 0.15 0.18 0.23 0.22 0.25 0.29 0.32 0.32 0.32 0.36 0.36 0.30 0.21 0.12 0.04 0.01 0.01
0.09 0.22 0.07 0.00 0.00 0.02 0.09 0.07 0.02 0.03 0.01 0.01 0.02 0.03 0.01 0.01 0.01 0.00 0.06 0.14 0.14 0.11 0.11 0.14 0.14 0.16 0.18 0.17 0.22 0.25 0.25 0.23 0.22 0.23 0.26 0.29 0.27 0.22 0.12 0.04 0.02 0.01 0.00 0.00
0.03 0.09 0.07 0.00 0.00 0.04 0.05 0.04 0.03 0.02 0.02 0.02 0.02 0.03 0.07 0.09 0.08 0.08 0.08 0.09 0.11 0.13 0.15 0.18 0.24 0.25 0.29 0.38 0.41 0.37 0.35 0.38 0.45 0.49 0.49 0.42 0.27 0.14 0.06 0.02 0.01 0.00 0.00 0.00
0.06 0.07 0.01 0.00 0.01 0.02 0.02 0.03 0.07 0.27 0.32 0.15 0.15 0.08 0.11 0.39 0.34 0.19 0.13 0.13 0.15 0.17 0.19 0.21 0.23 0.25 0.31 0.47 0.44 0.48 0.56 0.63 0.59 0.46 0.30 0.17 0.10 0.05 0.02 0.01 0.00 0.00 0.00 0.00
0.05 0.01 0.01 0.00 0.01 0.01 0.06 0.18 0.12 0.09 0.20 0.43 0.36 0.29 0.31 0.30 0.34 0.32 0.39 0.37 0.26 0.24 0.31 0.41 0.53 0.69 0.87 0.99 1.03 0.95 0.83 0.63 0.39 0.23 0.15 0.08 0.04 0.01 0.01 0.00 0.00 0.00 0.01 0.00
0.03 0.00 0.04 0.02 0.01 0.06 0.06 0.07 0.16 0.28 0.32 0.34 0.49 0.33 0.30 0.37 0.21 0.17 0.21 0.31 0.45 0.46 0.50 0.66 0.84 1.00 1.06 1.00 0.80 0.59 0.38 0.24 0.15 0.11 0.07 0.04 0.02 0.01 0.01 0.01 0.01 0.01 0.01 0.01
0.17 0.09 0.25 0.17 0.14 0.16 0.33 0.29 0.13 0.16 0.31 0.56 0.52 0.38 0.20 0.19 0.20 0.16 0.22 0.40 0.51 0.61 0.71 0.86 0.87 0.88 0.82 0.62 0.35 0.21 0.16 0.11 0.07 0.05 0.02 0.01 0.00 0.00 0.00 0.00 0.00 0.00 0.00 0.01
0.36 0.31 0.26 0.30 0.22 0.25 0.32 0.47 0.47 0.44 0.47 0.67 0.70 0.37 0.20 0.20 0.18 0.27 0.32 0.42 0.55 0.62 0.62 0.66 0.61 0.54 0.40 0.21 0.15 0.13 0.11 0.08 0.04 0.02 0.00 0.00 0.00 0.00 0.01 0.00 0.00 0.00 0.00 0.00
0.18 0.30 0.47 0.49 0.40 0.15 0.23 0.35 0.47 0.49 0.40 0.46 0.63 0.65 0.47 0.37 0.43 0.43 0.50 0.52 0.56 0.64 0.72 0.60 0.45 0.30 0.22 0.18 0.15 0.11 0.07 0.04 0.01 0.00 0.00 0.00 0.00 0.00 0.00 0.00 0.00 0.00 0.00 0.00
0.10 0.21 0.46 0.52 0.82 0.54 0.32 0.45 0.63 0.42 0.24 0.27 0.34 0.62 0.62 0.75 0.72 0.85 1.02 0.96 0.81 0.70 0.68 0.50 0.30 0.21 0.14 0.10 0.06 0.03 0.01 0.00 0.00 0.00 0.00 0.00 0.00 0.00 0.00 0.00 0.00 0.01 0.01 0.01
0.44 0.47 0.54 0.63 0.77 0.79 0.45 0.41 0.47 0.50 0.41 0.29 0.26 0.53 0.68 0.69 0.78 0.90 0.89 0.71 0.55 0.55 0.38 0.26 0.22 0.17 0.09 0.04 0.02 0.00 0.00 0.00 0.00 0.00 0.00 0.00 0.00 0.00 0.00 0.00 0.00 0.01 0.01 0.03
1.01 0.96 0.76 0.61 0.48 0.57 0.39 0.20 0.28 0.45 0.37 0.31 0.49 0.47 0.62 0.84 0.76 0.61 0.63 0.56 0.36 0.24 0.20 0.19 0.16 0.10 0.03 0.01 0.00 0.00 0.00 0.00 0.00 0.00 0.00 0.00 0.00 0.00 0.00 0.01 0.01 0.01 0.02 0.02
1.32 1.55 1.05 0.61 0.35 0.38 0.32 0.27 0.35 0.54 0.62 0.57 0.60 0.73 0.80 0.67 0.60 0.69 0.61 0.34 0.23 0.18 0.14 0.08 0.03 0.01 0.00 0.00 0.00 0.00 0.00 0.00 0.00 0.00 0.00 0.00 0.00 0.01 0.01 0.01 0.01 0.01 0.01 0.00
1.33 1.57 1.06 0.56 0.50 0.49 0.50 0.63 0.65 0.69 0.80 0.81 0.73 0.77 0.64 0.58 0.50 0.47 0.26 0.14 0.10 0.09 0.05 0.01 0.00 0.00 0.00 0.00 0.00 0.00 0.00 0.00 0.00 0.00 0.00 0.00 0.00 0.01 0.01 0.01 0.01 0.01 0.01 0.01
0.69 1.09 0.94 0.92 0.99 0.78 0.83 0.84 0.78 0.84 0.87 0.62 0.49 0.48 0.47 0.42 0.25 0.11 0.07 0.05 0.02 0.01 0.00 0.00 0.00 0.00 0.00 0.00 0.00 0.00 0.00 0.00 0.00 0.00 0.00 0.00 0.00 0.01 0.01 0.01 0.01 0.02 0.01 0.02
0.55 0.68 0.70 0.68 0.93 0.87 0.69 0.65 0.46 0.52 0.65 0.39 0.27 0.29 0.19 0.14 0.08 0.04 0.02 0.01 0.00 0.00 0.00 0.00 0.00 0.00 0.00 0.00 0.00 0.00 0.00 0.00 0.00 0.00 0.00 0.01 0.01 0.01 0.01 0.01 0.01 0.01 0.01 0.01
0.40 0.41 0.46 0.35 0.31 0.53 0.58 0.45 0.25 0.27 0.27 0.25 0.12 0.08 0.05 0.03 0.01 0.01 0.00 0.01 0.00 0.00 0.00 0.00 0.00 0.00 0.00 0.00 0.00 0.00 0.00 0.00 0.00 0.00 0.01 0.01 0.01 0.01 0.01 0.01 0.01 0.01 0.01 0.01
0.16 0.12 0.15 0.09 0.04 0.13 0.15 0.10 0.06 0.03 0.02 0.01 0.00 0.00 0.00 0.00 0.00 0.00 0.01 0.00 0.00 0.00 0.00 0.00 0.00 0.00 0.00 0.00 0.00 0.00 0.00 0.00 0.00 0.01 0.01 0.01 0.01 0.01 0.01 0.01 0.01 0.01 0.01 0.01
0.01 0.01 0.00 0.00 0.00 0.00 0.00 0.00 0.00 0.00 0.00 0.00 0.00 0.00 0.00 0.00 0.00 0.00 0.00 0.00 0.00 0.00 0.00 0.00 0.00 0.00 0.00 0.00 0.00 0.00 0.00 0.00 0.01 0.00 0.01 0.00 0.01 0.01 0.01 0.01 0.01 0.01 0.01 0.00
0.00 0.00 0.00 0.00 0.00 0.00 0.00 0.00 0.00 0.00 0.00 0.00 0.00 0.00 0.00 0.00 0.01 0.01 0.00 0.00 0.00 0.00 0.00 0.00 0.00 0.00 0.00 0.00 0.00 0.00 0.01 0.01 0.00 0.01 0.01 0.00 0.00 0.00 0.00 0.01 0.00 0.00 0.00 0.00
0.00 0.00 0.00 0.00 0.00 0.00 0.00 0.00 0.00 0.00 0.00 0.00 0.01 0.01 0.00 0.00 0.00 0.00 0.00 0.00 0.00 0.00 0.00 0.00 0.00 0.00 0.00 0.00 0.01 0.00 0.00 0.00 0.01 0.00 0.00 0.00 0.00 0.00 0.00 0.00 0.00 0.00 0.00 0.00
0.00 0.00 0.00 0.00 0.00 0.00 0.00 0.00 0.00 0.00 0.00 0.00 0.02 0.01 0.00 0.00 0.00 0.00 0.00 0.00 0.00 0.00 0.00 0.00 0.00 0.00 0.00 0.00 0.00 0.00 0.01 0.00 0.00 0.00 0.00 0.00 0.00 0.00 0.00 0.00 0.00 0.00 0.00 0.00

GFSNGP_prec_precacc24_282.txt.gz
Total_Precipitation_Accumulation
0.00 0.00 0.00 0.00 0.00 0.00 0.00 0.01 0.03 0.01 0.00 0.00 0.00 0.00 0.00 0.00 0.00 0.00 0.02 0.03 0.05 0.05 0.04 0.07 0.08 0.07 0.07 0.19 0.31 0.25 0.28 0.35 0.44 0.56 0.48 0.35 0.26 0.19 0.15 0.12 0.12 0.12 0.14 0.18
0.00 0.00 0.00 0.00 0.00 0.00 0.00 0.00 0.00 0.00 0.00 0.00 0.00 0.00 0.00 0.00 0.00 0.01 0.01 0.02 0.01 0.00 0.01 0.03 0.05 0.06 0.05 0.07 0.10 0.17 0.31 0.36 0.44 0.42 0.39 0.39 0.34 0.27 0.28 0.32 0.34 0.31 0.31 0.31
0.01 0.00 0.00 0.00 0.00 0.00 0.00 0.00 0.00 0.00 0.00 0.00 0.00 0.00 0.00 0.00 0.00 0.01 0.02 0.02 0.01 0.02 0.01 0.01 0.02 0.04 0.05 0.05 0.06 0.15 0.29 0.41 0.47 0.45 0.46 0.57 0.58 0.53 0.45 0.39 0.33 0.30 0.30 0.29
0.02 0.02 0.05 0.00 0.00 0.00 0.00 0.00 0.00 0.00 0.00 0.00 0.00 0.00 0.00 0.01 0.01 0.02 0.03 0.03 0.02 0.03 0.06 0.06 0.03 0.04 0.04 0.04 0.09 0.15 0.22 0.30 0.40 0.47 0.50 0.51 0.44 0.38 0.31 0.28 0.30 0.30 0.26 0.24
0.03 0.03 0.01 0.00 0.00 0.00 0.00 0.00 0.00 0.00 0.00 0.00 0.00 0.00 0.00 0.01 0.06 0.06 0.04 0.06 0.07 0.05 0.05 0.06 0.08 0.12 0.17 0.22 0.24 0.23 0.29 0.35 0.40 0.37 0.36 0.35 0.30 0.26 0.27 0.28 0.27 0.22 0.16 0.08
0.08 0.14 0.03 0.00 0.00 0.00 0.01 0.02 0.00 0.00 0.00 0.00 0.01 0.06 0.01 0.02 0.07 0.16 0.23 0.17 0.08 0.02 0.02 0.03 0.04 0.06 0.10 0.15 0.19 0.25 0.25 0.29 0.34 0.37 0.36 0.35 0.39 0.38 0.30 0.22 0.12 0.04 0.01 0.01
0.08 0.23 0.07 0.00 0.00 0.01 0.05 0.03 0.00 0.02 0.01 0.01 0.04 0.06 0.04 0.03 0.03 0.02 0.07 0.15 0.15 0.11 0.11 0.14 0.14 0.16 0.18 0.17 0.23 0.28 0.27 0.26 0.25 0.26 0.29 0.30 0.27 0.22 0.12 0.05 0.02 0.01 0.00 0.00
0.02 0.07 0.05 0.00 0.00 0.03 0.03 0.04 0.02 0.01 0.02 0.03 0.04 0.06 0.08 0.10 0.09 0.10 0.08 0.13 0.12 0.13 0.15 0.18 0.25 0.26 0.30 0.39 0.43 0.39 0.37 0.40 0.47 0.50 0.50 0.42 0.27 0.14 0.06 0.02 0.01 0.00 0.00 0.00
0.04 0.02 0.00 0.00 0.00 0.00 0.01 0.02 0.03 0.03 0.18 0.17 0.18 0.11 0.12 0.40 0.36 0.21 0.18 0.18 0.15 0.17 0.19 0.21 0.23 0.25 0.32 0.49 0.46 0.50 0.57 0.64 0.59 0.46 0.30 0.17 0.10 0.05 0.02 0.00 0.00 0.00 0.00 0.00
0.03 0.00 0.00 0.00 0.00 0.00 0.01 0.03 0.04 0.07 0.20 0.45 0.39 0.31 0.34 0.34 0.40 0.42 0.53 0.39 0.26 0.24 0.31 0.42 0.54 0.70 0.88 1.00 1.04 0.95 0.84 0.64 0.39 0.23 0.15 0.08 0.04 0.01 0.01 0.00 0.00 0.00 0.01 0.00
0.01 0.00 0.04 0.02 0.00 0.01 0.03 0.05 0.08 0.18 0.31 0.35 0.51 0.35 0.31 0.41 0.28 0.26 0.24 0.32 0.45 0.47 0.50 0.68 0.86 1.02 1.08 1.01 0.80 0.59 0.38 0.24 0.15 0.11 0.07 0.04 0.02 0.01 0.01 0.01 0.00 0.01 0.02 0.01
0.17 0.09 0.24 0.15 0.03 0.02 0.08 0.11 0.08 0.13 0.30 0.55 0.54 0.42 0.25 0.27 0.30 0.27 0.27 0.40 0.51 0.62 0.72 0.88 0.88 0.90 0.84 0.62 0.35 0.21 0.16 0.11 0.07 0.05 0.02 0.01 0.00 0.00 0.00 0.00 0.00 0.00 0.00 0.00
0.36 0.31 0.24 0.15 0.05 0.02 0.10 0.13 0.11 0.21 0.45 0.67 0.72 0.46 0.25 0.25 0.31 0.30 0.33 0.43 0.57 0.64 0.63 0.68 0.62 0.54 0.40 0.21 0.15 0.13 0.11 0.08 0.04 0.02 0.00 0.00 0.00 0.00 0.00 0.00 0.00 0.00 0.00 0.00
0.18 0.30 0.46 0.19 0.12 0.08 0.11 0.15 0.23 0.40 0.40 0.46 0.64 0.67 0.48 0.42 0.47 0.44 0.50 0.54 0.58 0.65 0.73 0.60 0.45 0.30 0.22 0.18 0.15 0.11 0.07 0.04 0.01 0.00 0.00 0.00 0.00 0.00 0.00 0.00 0.00 0.00 0.00 0.00
0.04 0.06 0.29 0.34 0.26 0.15 0.14 0.23 0.55 0.42 0.24 0.28 0.34 0.61 0.60 0.72 0.68 0.82 1.02 0.98 0.82 0.71 0.69 0.50 0.30 0.21 0.14 0.10 0.06 0.03 0.01 0.00 0.00 0.00 0.00 0.00 0.00 0.00 0.00 0.00 0.00 0.00 0.00 0.00
0.24 0.15 0.19 0.40 0.35 0.17 0.18 0.34 0.47 0.51 0.41 0.28 0.24 0.47 0.63 0.65 0.78 0.92 0.91 0.72 0.55 0.55 0.38 0.26 0.23 0.17 0.09 0.04 0.02 0.01 0.00 0.00 0.00 0.00 0.00 0.00 0.00 0.00 0.00 0.00 0.00 0.00 0.01 0.01
0.66 0.50 0.39 0.36 0.24 0.28 0.28 0.21 0.28 0.45 0.37 0.31 0.46 0.45 0.62 0.84 0.77 0.62 0.64 0.56 0.36 0.25 0.20 0.19 0.16 0.10 0.03 0.01 0.00 0.00 0.00 0.00 0.00 0.00 0.00 0.00 0.00 0.00 0.00 0.00 0.00 0.00 0.01 0.01
0.80 0.95 0.74 0.46 0.28 0.34 0.29 0.26 0.33 0.52 0.59 0.54 0.59 0.73 0.81 0.67 0.61 0.69 0.61 0.34 0.24 0.18 0.14 0.08 0.03 0.01 0.00 0.00 0.00 0.00 0.00 0.00 0.00 0.00 0.00 0.00 0.00 0.00 0.00 0.00 0.00 0.00 0.00 0.00
0.84 1.19 0.88 0.48 0.44 0.45 0.39 0.51 0.56 0.64 0.78 0.80 0.73 0.77 0.65 0.59 0.50 0.47 0.26 0.14 0.10 0.09 0.05 0.01 0.00 0.00 0.00 0.00 0.00 0.00 0.00 0.00 0.00 0.00 0.00 0.00 0.00 0.00 0.00 0.00 0.00 0.00 0.00 0.00
0.50 0.84 0.81 0.86 0.93 0.73 0.75 0.76 0.72 0.83 0.89 0.63 0.49 0.48 0.47 0.42 0.25 0.12 0.07 0.05 0.02 0.01 0.00 0.00 0.00 0.00 0.00 0.00 0.00 0.00 0.00 0.00 0.00 0.00 0.00 0.00 0.00 0.00 0.00 0.00 0.00 0.00 0.00 0.01
0.37 0.48 0.53 0.54 0.81 0.80 0.65 0.63 0.45 0.52 0.66 0.39 0.27 0.29 0.19 0.14 0.08 0.04 0.02 0.01 0.00 0.00 0.00 0.00 0.00 0.00 0.00 0.00 0.00 0.00 0.00 0.00 0.00 0.00 0.00 0.00 0.00 0.00 0.00 0.00 0.00 0.00 0.00 0.00
0.26 0.25 0.31 0.26 0.26 0.48 0.55 0.44 0.25 0.27 0.27 0.25 0.12 0.08 0.05 0.03 0.01 0.01 0.00 0.01 0.00 0.00 0.00 0.00 0.00 0.00 0.00 0.00 0.00 0.00 0.00 0.00 0.00 0.00 0.00 0.00 0.00 0.00 0.00 0.00 0.00 0.00 0.00 0.00
0.13 0.10 0.13 0.08 0.04 0.13 0.15 0.10 0.06 0.03 0.02 0.01 0.00 0.00 0.00 0.00 0.00 0.00 0.01 0.00 0.00 0.00 0.00 0.00 0.00 0.00 0.00 0.00 0.00 0.00 0.00 0.00 0.00 0.00 0.00 0.00 0.00 0.00 0.00 0.00 0.00 0.00 0.00 0.00
0.01 0.00 0.00 0.00 0.00 0.00 0.00 0.00 0.00 0.00 0.00 0.00 0.00 0.00 0.00 0.00 0.00 0.00 0.00 0.00 0.00 0.00 0.00 0.00 0.00 0.00 0.00 0.00 0.00 0.00 0.00 0.00 0.00 0.00 0.00 0.00 0.00 0.00 0.00 0.00 0.00 0.00 0.00 0.00
0.00 0.00 0.00 0.00 0.00 0.00 0.00 0.00 0.00 0.00 0.00 0.00 0.00 0.00 0.00 0.00 0.01 0.01 0.00 0.00 0.00 0.00 0.00 0.00 0.00 0.00 0.00 0.00 0.00 0.00 0.00 0.00 0.00 0.00 0.00 0.00 0.00 0.00 0.00 0.00 0.00 0.00 0.00 0.00
0.00 0.00 0.00 0.00 0.00 0.00 0.00 0.00 0.00 0.00 0.00 0.00 0.01 0.01 0.00 0.00 0.00 0.00 0.00 0.00 0.00 0.00 0.00 0.00 0.00 0.00 0.00 0.00 0.00 0.00 0.00 0.00 0.00 0.00 0.00 0.00 0.00 0.00 0.00 0.00 0.00 0.00 0.00 0.00
0.00 0.00 0.00 0.00 0.00 0.00 0.00 0.00 0.00 0.00 0.00 0.00 0.01 0.01 0.00 0.00 0.00 0.00 0.00 0.00 0.00 0.00 0.00 0.00 0.00 0.00 0.00 0.00 0.00 0.00 0.00 0.00 0.00 0.00 0.00 0.00 0.00 0.00 0.00 0.00 0.00 0.00 0.00 0.00

GFSNGP_prec_precacc24_288.txt.gz
Total_Precipitation_Accumulation
0.00 0.00 0.00 0.00 0.00 0.00 0.00 0.00 0.00 0.00 0.00 0.00 0.00 0.00 0.00 0.00 0.00 0.00 0.01 0.01 0.00 0.01 0.06 0.14 0.13 0.07 0.07 0.19 0.31 0.26 0.29 0.37 0.47 0.61 0.57 0.45 0.35 0.29 0.24 0.18 0.19 0.17 0.17 0.22
0.00 0.00 0.00 0.00 0.00 0.00 0.00 0.00 0.00 0.00 0.00 0.00 0.00 0.00 0.00 0.00 0.00 0.00 0.00 0.02 0.03 0.06 0.08 0.06 0.07 0.09 0.05 0.06 0.10 0.18 0.31 0.38 0.47 0.48 0.47 0.47 0.44 0.41 0.38 0.36 0.35 0.32 0.32 0.34
0.01 0.00 0.00 0.00 0.00 0.00 0.00 0.00 0.00 0.00 0.00 0.00 0.00 0.00 0.00 0.00 0.00 0.00 0.03 0.04 0.04 0.10 0.17 0.11 0.08 0.06 0.04 0.04 0.06 0.15 0.30 0.43 0.50 0.50 0.51 0.65 0.66 0.58 0.48 0.41 0.33 0.30 0.30 0.29
0.01 0.02 0.04 0.00 0.00 0.00 0.00 0.00 0.00 0.00 0.00 0.00 0.00 0.00 0.00 0.00 0.01 0.03 0.04 0.05 0.09 0.15 0.27 0.14 0.07 0.04 0.04 0.04 0.10 0.15 0.23 0.32 0.42 0.51 0.55 0.56 0.47 0.40 0.32 0.28 0.30 0.30 0.26 0.24
0.03 0.03 0.01 0.00 0.00 0.00 0.00 0.00 0.00 0.00 0.00 0.00 0.00 0.00 0.00 0.01 0.05 0.06 0.07 0.08 0.08 0.16 0.23 0.06 0.07 0.05 0.11 0.21 0.25 0.24 0.31 0.37 0.42 0.39 0.39 0.37 0.31 0.27 0.27 0.28 0.27 0.22 0.16 0.07
0.07 0.12 0.03 0.00 0.00 0.00 0.00 0.00 0.00 0.00 0.00 0.00 0.01 0.06 0.02 0.02 0.07 0.11 0.10 0.09 0.13 0.17 0.17 0.15 0.05 0.04 0.07 0.12 0.19 0.27 0.28 0.32 0.35 0.38 0.37 0.36 0.39 0.38 0.30 0.22 0.12 0.04 0.01 0.01
0.06 0.18 0.05 0.00 0.00 0.00 0.03 0.01 0.00 0.00 0.01 0.01 0.03 0.06 0.04 0.02 0.02 0.02 0.05 0.22 0.31 0.38 0.25 0.09 0.06 0.07 0.12 0.15 0.24 0.30 0.29 0.28 0.26 0.27 0.29 0.30 0.27 0.22 0.12 0.05 0.02 0.01 0.00 0.00
0.01 0.05 0.04 0.00 0.00 0.02 0.03 0.04 0.02 0.01 0.01 0.02 0.03 0.03 0.02 0.02 0.02 0.07 0.31 0.38 0.49 0.36 0.13 0.12 0.13 0.13 0.18 0.32 0.43 0.39 0.38 0.40 0.47 0.50 0.50 0.42 0.27 0.14 0.06 0.02 0.01 0.00 0.00 0.00
0.02 0.01 0.00 0.00 0.00 0.00 0.01 0.02 0.03 0.02 0.03 0.05 0.07 0.04 0.02 0.03 0.07 0.20 0.20 0.33 0.29 0.20 0.17 0.19 0.22 0.25 0.32 0.49 0.46 0.50 0.57 0.64 0.59 0.46 0.30 0.17 0.10 0.05 0.02 0.00 0.00 0.00 0.00 0.00
0.00 0.00 0.00 0.00 0.00 0.00 0.01 0.03 0.04 0.06 0.10 0.09 0.12 0.07 0.06 0.13 0.18 0.17 0.35 0.29 0.26 0.17 0.21 0.34 0.44 0.61 0.84 0.98 1.03 0.95 0.84 0.64 0.39 0.23 0.15 0.08 0.04 0.01 0.01 0.00 0.00 0.00 0.01 0.00
0.01 0.00 0.04 0.02 0.00 0.01 0.03 0.05 0.07 0.09 0.07 0.10 0.12 0.11 0.07 0.14 0.15 0.15 0.10 0.20 0.36 0.36 0.35 0.53 0.74 0.94 1.06 1.00 0.80 0.59 0.38 0.24 0.15 0.11 0.07 0.04 0.02 0.01 0.01 0.01 0.00 0.01 0.01 0.01
0.17 0.09 0.24 0.15 0.03 0.02 0.08 0.11 0.08 0.09 0.10 0.06 0.10 0.11 0.11 0.16 0.20 0.18 0.11 0.12 0.23 0.35 0.49 0.77 0.83 0.87 0.83 0.62 0.35 0.21 0.16 0.11 0.07 0.05 0.02 0.01 0.00 0.00 0.00 0.00 0.00 0.00 0.00 0.00
0.36 0.31 0.24 0.15 0.05 0.02 0.10 0.13 0.10 0.13 0.15 0.09 0.07 0.17 0.14 0.16 0.20 0.09 0.10 0.18 0.35 0.58 0.62 0.68 0.62 0.54 0.40 0.21 0.15 0.13 0.11 0.08 0.04 0.02 0.00 0.00 0.00 0.00 0.00 0.00 0.00 0.00 0.00 0.00
0.18 0.30 0.46 0.19 0.12 0.08 0.11 0.14 0.12 0.14 0.10 0.05 0.06 0.15 0.10 0.12 0.17 0.17 0.26 0.37 0.49 0.63 0.73 0.60 0.45 0.30 0.22 0.18 0.15 0.11 0.07 0.04 0.01 0.00 0.00 0.00 0.00 0.00 0.00 0.00 0.00 0.00 0.00 0.00
0.04 0.06 0.29 0.34 0.26 0.15 0.13 0.17 0.23 0.20 0.15 0.20 0.14 0.10 0.11 0.14 0.25 0.47 0.65 0.68 0.69 0.69 0.69 0.50 0.30 0.21 0.14 0.10 0.06 0.03 0.01 0.00 0.00 0.00 0.00 0.00 0.00 0.00 0.00 0.00 0.00 0.00 0.00 0.00
0.20 0.14 0.19 0.39 0.34 0.15 0.11 0.17 0.22 0.28 0.31 0.21 0.12 0.17 0.19 0.24 0.41 0.62 0.78 0.68 0.53 0.54 0.38 0.26 0.23 0.17 0.09 0.04 0.02 0.01 0.01 0.01 0.00 0.00 0.00 0.00 0.00 0.00 0.00 0.00 0.00 0.00 0.00 0.00
0.49 0.38 0.32 0.28 0.18 0.11 0.09 0.11 0.13 0.14 0.10 0.09 0.16 0.20 0.32 0.45 0.46 0.54 0.62 0.55 0.36 0.24 0.20 0.19 0.16 0.10 0.04 0.01 0.01 0.00 0.00 0.00 0.00 0.00 0.00 0.00 0.00 0.00 0.00 0.00 0.00 0.00 0.00 0.00
0.45 0.47 0.33 0.19 0.13 0.08 0.06 0.08 0.07 0.07 0.10 0.12 0.18 0.31 0.44 0.44 0.49 0.65 0.59 0.34 0.24 0.18 0.14 0.08 0.03 0.01 0.00 0.00 0.00 0.00 0.00 0.00 0.00 0.00 0.00 0.00 0.00 0.00 0.00 0.00 0.00 0.00 0.00 0.00
0.26 0.32 0.16 0.09 0.12 0.07 0.05 0.10 0.16 0.15 0.20 0.24 0.26 0.42 0.47 0.52 0.48 0.46 0.26 0.14 0.10 0.09 0.05 0.01 0.00 0.00 0.00 0.00 0.00 0.00 0.00 0.00 0.00 0.00 0.00 0.00 0.00 0.00 0.00 0.00 0.00 0.00 0.00 0.00
0.19 0.25 0.16 0.21 0.19 0.11 0.17 0.22 0.22 0.31 0.44 0.33 0.29 0.34 0.39 0.40 0.24 0.12 0.07 0.05 0.02 0.01 0.00 0.00 0.00 0.00 0.00 0.00 0.00 0.00 0.00 0.00 0.00 0.00 0.00 0.00 0.00 0.00 0.00 0.00 0.00 0.00 0.00 0.00
0.10 0.14 0.15 0.15 0.22 0.23 0.23 0.28 0.21 0.28 0.48 0.34 0.24 0.27 0.18 0.14 0.08 0.04 0.02 0.01 0.00 0.00 0.00 0.00 0.00 0.00 0.00 0.00 0.00 0.00 0.00 0.00 0.00 0.00 0.00 0.00 0.00 0.00 0.00 0.00 0.00 0.00 0.00 0.00
0.06 0.05 0.08 0.07 0.07 0.21 0.32 0.31 0.20 0.24 0.26 0.24 0.12 0.08 0.05 0.03 0.01 0.01 0.00 0.01 0.00 0.00 0.00 0.00 0.00 0.00 0.00 0.00 0.00 0.00 0.00 0.00 0.00 0.00 0.00 0.00 0.00 0.00 0.00 0.00 0.00 0.00 0.00 0.00
0.04 0.04 0.05 0.03 0.02 0.09 0.12 0.09 0.06 0.03 0.02 0.01 0.00 0.00 0.00 0.00 0.00 0.00 0.01 0.00 0.00 0.00 0.00 0.00 0.00 0.00 0.00 0.00 0.00 0.00 0.00 0.00 0.00 0.00 0.00 0.00 0.00 0.00 0.00 0.00 0.00 0.00 0.00 0.00
0.00 0.00 0.00 0.00 0.00 0.00 0.00 0.00 0.00 0.00 0.00 0.00 0.00 0.00 0.00 0.00 0.00 0.00 0.00 0.00 0.00 0.00 0.00 0.00 0.00 0.00 0.00 0.00 0.00 0.00 0.00 0.00 0.00 0.00 0.00 0.00 0.00 0.00 0.00 0.00 0.00 0.00 0.00 0.00
0.00 0.00 0.00 0.00 0.00 0.00 0.00 0.00 0.00 0.00 0.00 0.00 0.00 0.00 0.00 0.00 0.00 0.00 0.00 0.00 0.00 0.00 0.00 0.00 0.00 0.00 0.00 0.00 0.00 0.00 0.00 0.00 0.00 0.00 0.00 0.00 0.00 0.00 0.00 0.00 0.00 0.00 0.00 0.00
0.00 0.00 0.00 0.00 0.00 0.00 0.00 0.00 0.00 0.00 0.00 0.00 0.01 0.00 0.00 0.00 0.00 0.00 0.00 0.00 0.00 0.00 0.00 0.00 0.00 0.00 0.00 0.00 0.00 0.00 0.00 0.00 0.00 0.00 0.00 0.00 0.00 0.00 0.00 0.00 0.00 0.00 0.00 0.00
0.00 0.00 0.00 0.00 0.00 0.00 0.00 0.00 0.00 0.00 0.00 0.00 0.01 0.01 0.00 0.00 0.00 0.00 0.00 0.00 0.00 0.00 0.00 0.00 0.00 0.00 0.00 0.00 0.00 0.00 0.00 0.00 0.00 0.00 0.00 0.00 0.00 0.00 0.00 0.00 0.00 0.00 0.00 0.00